This is the latest recevied weather packets stored in our database for station/object KB9PMA-1. If no packets are shown the sender has not sent any weather packets the latest 10 day(s).
| Time | Temp. | Humidity | Pressure | Rain* | Wind** | Luminosity | Snow |
|---|---|---|---|---|---|---|---|
| 1778077074 | 11.67° C | 67% | 1014.9 hPa | 0 mm | - | - | - |
| 1778076774 | 11.67° C | 64% | 1014.7 hPa | 0 mm | - | - | - |
| 1778076474 | 11.67° C | 68% | 1014.5 hPa | 0 mm | - | - | - |
| 1778076174 | 11.67° C | 67% | 1014.5 hPa | 0 mm | - | - | - |
| 1778075874 | 11.67° C | 72% | 1014.3 hPa | 0 mm | - | - | - |
| 1778075574 | 11.11° C | 69% | 1014.1 hPa | 0 mm | - | - | - |
| 1778075274 | 11.11° C | 71% | 1014.2 hPa | 0 mm | - | - | - |
| 1778074974 | 11.11° C | 64% | 1014.3 hPa | 0 mm | - | - | - |
| 1778074674 | 11.11° C | 67% | 1014.3 hPa | 0 mm | - | - | - |
| 1778074374 | 11.11° C | 75% | 1014.2 hPa | 0 mm | - | - | - |
| 1778074074 | 10.56° C | 78% | 1014.2 hPa | 0 mm | - | - | - |
| 1778073774 | 10.56° C | 77% | 1014.2 hPa | 0 mm | - | - | - |
| 1778073474 | 10.56° C | 78% | 1014.1 hPa | 0 mm | - | - | - |
| 1778073174 | 10° C | 82% | 1014.1 hPa | 0 mm | - | - | - |
| 1778072874 | 9.44° C | 81% | 1013.9 hPa | 0 mm | - | - | - |
| 1778072574 | 9.44° C | 85% | 1014 hPa | 0 mm | - | - | - |
| 1778072274 | 8.89° C | 85% | 1014 hPa | 0 mm | - | - | - |
| 1778071974 | 8.89° C | 91% | 1014 hPa | 0 mm | - | - | - |
| 1778071674 | 8.89° C | 90% | 1014 hPa | 0 mm | - | - | - |
| 1778071374 | 8.33° C | 92% | 1013.9 hPa | 0 mm | - | - | - |
| 1778071074 | 8.33° C | 95% | 1013.7 hPa | 0 mm | - | - | - |
| 1778070774 | 8.33° C | 94% | 1013.6 hPa | 0 mm | - | - | - |
| 1778070474 | 8.33° C | 95% | 1013.5 hPa | 0 mm | - | - | - |
| 1778070174 | 8.33° C | 96% | 1013.4 hPa | 0 mm | - | - | - |
| 1778069874 | 8.33° C | 96% | 1013.3 hPa | 0 mm | - | - | - |
* Rain latest hour (hover to see other rain measurements)
** Current wind speed in m/s (hover to see current wind gust speed)